Location: Central Coast NSW, Australia
(33.2407°S, 151.4316°E)
Time: 05:58:29
(UTC+11:00)

OTV 5 (USA 277) - Visible Passes

Search period start: 20 March 2019 00:00
Search period end: 30 March 2019 00:00
Orbit: 315 x 320 km, 54.5° (Epoch: 14 March)

Date Brightness Start Highest point End Pass type
(mag) Time Alt. Az. Time Alt. Az. Time Alt. Az.
20 Mar ? 05:43:09 10° S 05:45:15 19° SE 05:47:19 10° E visible
21 Mar ? 05:57:20 10° SW 06:00:04 60° SE 06:02:45 10° NE visible
22 Mar ? 06:12:49 15° WSW 06:14:42 31° NW 06:17:11 10° NNE visible
23 Mar ? 04:57:33 11° ENE 04:57:33 11° ENE 04:57:41 10° ENE visible
24 Mar ? 19:50:13 10° N 19:52:32 24° NE 19:53:12 22° ENE visible
25 Mar ? 20:04:24 10° NW 20:07:08 82° SW 20:08:33 25° SE visible
26 Mar ? 20:19:36 10° W 20:21:54 23° SW 20:23:38 14° S visible
29 Mar ? 19:30:09 10° WSW 19:31:50 15° SW 19:33:31 10° S visible
